Meteor-2

operational
NORAD ID: 8026 Int'l Des: 1975-064 Owner: GUKOSR/GMS Country: SU
LEOCIRCULARPOLAR

Meteor-2について

説明を読み込み中...

リアルタイム位置

3D地球を読み込み中...

次回通過

高度履歴

Altitude vs Time

uPlot chart will show altitude changes over time

軌道要素

1 08026U 75064A 26062.59550180 .00000095 00000-0 45621-4 0 9993
2 08026 81.2788 125.7746 0022366 157.6663 202.5487 14.10793257604453
Epoch: Mar 3, 2026 • Age: 29 hours

現在のステータス

高度 845.6 km
速度 7.44 km/s
衛星直下点 35.76°N, 68.1°E
タイプ other

大規模コンステレーション

Loading constellations...